Location: Unspecified
(35.7250°N, 0.0000°E)
Time: 08:58:49
(UTC+00:00)

Vanguard 1 Rocket - Pass Details

Date: 23 June 2019
Orbit: 651 x 4225 km, 34.3° (Epoch: 16 July)

Event Time Altitude Azimuth Distance (km) Brightness Sun altitude
Rises 16:08:22 0° 236° (SW) 8,294 12.9 36.0°
Reaches altitude 10° 16:14:40 10° 233° (SW) 6,986 12.7 34.7°
Maximum altitude 16:35:26 62° 160° (SSE) 2,784 10.1 30.5°
Drops below altitude 10° 16:46:16 10° 82° (E) 3,908 10.2 28.3°
Sets 16:48:43 0° 79° (E) 4,571 10.5 27.8°
